Regional Weather Roundup
Issued by NWS Newport/Morehead, NC

Current Version | Previous Version | Text Only | Print | Product List | Glossary On
Versions: 1 2 3 4 5 6 7 8 9 10 11 12 13 14 15 16 17 18 19 20 21 22 23 24 25 26 27 28 29 30 31 32 33 34 35 36 37 38 39 40 41 42 43 44 45 46 47 48 49 50
000
ASUS42 KMHX 041112
RWRMHX
WEATHER ROUNDUP FOR EASTERN NORTH CAROLINA
NATIONAL WEATHER SERVICE NEWPORT/MOREHEAD CITY NC
600 AM EST WED MAR 04 2015

NOTE: "FAIR" INDICATES FEW OR NO CLOUDS BELOW 12,000 FEET
WITH NO SIGNIFICANT WEATHER AND/OR OBSTRUCTIONS TO VISIBILITY

NCZ015>017-031-032-045>047-102-103-041200-
NORTH COAST

CITY           SKY/WX    TMP DP  RH WIND       PRES   REMARKS
EDENTON        FOG       48  48  99 SW7       30.01S VSB 1/2
ELIZABETH CITY FOG       51  50  96 SW14      29.99S VSB 3/4
KITTY HAWK     CLOUDY    59  59 100 SW10G16   29.98R FOG
MANTEO         CLOUDY    55  55 100 SW16      29.99S

$$

NCZ045>047-081-094-103-104-041200-
CENTRAL COAST

CITY           SKY/WX    TMP DP  RH WIND       PRES   REMARKS
FRISCO         FOG       55  55 100 SW9       30.04R VSB 1/4
SWANQUARTER      N/A     52 N/A N/A S8        29.97S

$$

NCZ095-097-098-100-101-041200-
SOUTHERN COAST

CITY           SKY/WX    TMP DP  RH WIND       PRES   REMARKS
BEAUFORT       FOG       54  54 100 SW12      30.06R VSB 1/2
CEDAR ISLAND     N/A     59 N/A N/A SW9G22    30.06S
JACKSONVILLE   FOG       62  61  96 SW14G28   30.05R VSB 1/8
PINEY ISLAND     N/A    N/A N/A N/A MISG      30.04R
WILMINGTON     CLOUDY    60  60 100 SW10      30.08R FOG


$$

NCZ011>013-027>030-043-044-078>080-089-090>093-098-041200-
COASTAL PLAIN

CITY           SKY/WX    TMP DP  RH WIND       PRES   REMARKS
AHOSKIE        FOG       44  43  98 CALM      30.00R VSB 1
CLINTON        FOG       44  44 100 CALM      30.06R VSB 1/2
ELIZABETHTOWN  CLOUDY    56  56 100 S10G17    30.04S FOG
GOLDSBORO      NOT AVBL
GREENVILLE     FOG       46  46 100 SW10G18   30.03F VSB 1
HAVELOCK       FOG       60  58  92 SW14      30.05R VSB 3/4
KENANSVILLE    FOG       51  50  98 SW7       30.05R VSB 1
KINSTON        NOT AVBL
NEW BERN       CLOUDY    63  61  93 SW14G23   30.04R
RICHLANDS      CLOUDY    52  48  87 SW8       30.06R VSB 1/4
ROCKY MOUNT    FOG       45  45 100 SW13      30.01R VSB 1/2
WASHINGTON     FOG       48  48  99 SW7       30.03R VSB 1/2
WHITEVILLE     FOG       53  52  97 S8        30.06S VSB 1/2

$$

AMZ130-135-150-152-154-156-158-170-250-252-270-ANZ085-086-088-633-658-670-041200-
MARINE OBSERVATIONS

STATION/POSITION TIME  TEMP    WIND        PRES    WAVE   SWELL
                       AIR SEA DIR/SP/G            HT/PER HT/PER
                 (UTC) (F)     (DEG/KT/KT) (MB)    (FT/S) (FT/S)
CHESAPEAKE LIGHT 1000   45     220/ 26/ 28 1013.6
64 E VA BEACH    1050   56 56  230/ 14/ 17 1014.3    6/ 8   3/ 8
DUCK             1000   52 34  230/ 10/ 13 1014.2
2 E DUCK         1011      35                N/A     4/ 7
10 NE DUCK       NOT AVBL
OREGON INLET     1000   49 43  210/ 14/ 16 1015.9
HATTERAS CG      1000   54 44  220/ 10/ 13 1017.0
CAPE LOOKOUT     1000   58     200/ 11/ 13 1017.2
BEAUFORT LAB     1000   54 44  220/  7/  9 1016.3
27 SE WRIGHTSVLE NOT AVBL
5 SE WRIGHTSVLE  NOT AVBL
225 S CAPE HAT   1050   71 73  200/ 17/ 21 1022.2    6/ 9   3/ 9
41 SE CHARLESTON 1050   69 68  230/ 10/ 12 1019.4    4/ 7   3/ 7

$$



USA.gov is the U.S. government's official web portal to all federal, state and local government web resources and services.